Regional Weather Roundup
Issued by NWS Northern Indiana

Home | Current Version | Previous Version | Graphics & Text | Print | Product List | Glossary On
Versions: 1 2 3 4 5 6 7 8 9 10 11 12 13 14 15 16 17 18 19 20 21 22 23 24 25 26 27 28 29 30 31 32 33 34 35 36 37 38 39 40 41 42 43 44 45 46 47 48 49 50
000
ASUS43 KIWX 181500
RWRIWX

KIWX WEATHER ROUNDUP
NATIONAL WEATHER SERVICE NORTHERN INDIANA
1000 AM EST MON DEC 18 2017

NOTE: "FAIR" INDICATES FEW OR NO CLOUDS BELOW 12,000 FEET WITH NO
SIGNIFICANT WEATHER AND/OR OBSTRUCTIONS TO VISIBILITY.

* THESE STATIONS ARE NOT UNDER NWS QUALITY CONTROL. THEY ALSO MAY NOT
  REPORT WEATHER SUCH AS PRECIPITATION OR FOG.

INZ001>027-181600-
NORTHERN INDIANA

CITY           SKY/WX    TMP DP  RH WIND       PRES   REMARKS
GARY*          CLOUDY    45  43  93 SW9       29.95S FOG
LAPORTE*       CLOUDY    40  40  99 SW8       29.96S FOG
KNOX*          CLOUDY    43  41  93 SW8       29.96F
SOUTH BEND     FOG       39  39 100 SW10      29.95F VSB 3/4
GOSHEN         CLOUDY    41  40  96 SW13      29.95F FOG
MONTICELLO*    CLOUDY    43  41  95 SW9       30.00F FOG
ROCHESTER*     FOG       45  45 100 SW9       29.99S VSB 1
WARSAW*        CLOUDY    41  41 100 SW12      29.97S FOG
AUBURN*        CLOUDY    41  39  93 SW6       29.98F FOG
FORT WAYNE     LGT RAIN  42  41  96 SW13G24   30.00S FOG
PERU/GRISSOM   CLOUDY    43  43 100 SW14      30.00S FOG

$$
INZ028>050-181600-
CENTRAL INDIANA

CITY           SKY/WX    TMP DP  RH WIND       PRES   REMARKS
LAFAYETTE      CLOUDY    44  43  96 SW8       30.02S
KOKOMO*        CLOUDY    43  42  97 SW14      30.02S FOG
MUNCIE*        CLOUDY    43  40  89 SW9       30.03S FOG
INDIANAPOLIS   CLOUDY    44  42  93 SW12      30.07R FOG

$$
MIZ043>046-050>051-056>058-064>065-071>073-077>080-181600-
SOUTHWEST LOWER MICHIGAN

CITY           SKY/WX    TMP DP  RH WIND       PRES   REMARKS
BATTLE CREEK   FOG       38  37  97 SW13      29.91S VSB 1
BENTON HARBOR  CLOUDY    42  39  89 SW14      29.92F FOG
COLDWATER*     FOG       39  39 100 SW9       29.93F VSB 1/2
HILLSDALE*     FOG       37  36  93 S8        29.91F VSB 1/2
HOLLAND        CLOUDY    39  38  96 W13       29.89S
GRAND RAPIDS   FOG       38  38 100 SW8       29.88S VSB 1
KALAMAZOO      FOG       39  38  96 SW8       29.92S VSB 1
STURGIS*       FOG       39  39  98 SW10      29.93F VSB 1/4
THREE RIVERS*  FOG       40  40  99 SW7       29.93F VSB 3/4

$$
OHZ001>008-015>018-024>025-181600-
NORTHWEST OHIO

CITY           SKY/WX    TMP DP  RH WIND       PRES   REMARKS
DEFIANCE       CLOUDY    40  38  93 SW14      29.99S FOG
FINDLAY        CLOUDY    40  37  89 S13       30.00S FOG
TOLEDO EXPRESS LGT RAIN  39  39 100 SW9       29.97F FOG
TOLEDO METCALF CLOUDY    40  38  93 SW14      29.99F FOG
LIMA           LGT RAIN  39  39 100 SW12      30.01S FOG

$$
AND FOR LAKE MICHIGAN COASTAL AND OPEN LAKE BUOY OBSERVATIONS

STATION/POSITION TEMP    WIND        PRES    VSBY  WAVE
                 AIR SEA DIR/SP/G                  HT/PER
                 (F)     (DEG/KT/KT) (MB)    (MI)  (FT/S)
CALUMET HARBOR    43     200/  8/ 11 1013.1F
MICHIGAN CITY     43     210/ 12/ 13   N/A
BURNS HARBOR      44     220/ 12/ 18 1014.6F
SAINT JOSEPH      40     220/ 12/ 16 1013.9

$$
&&




USA.gov is the U.S. government's official web portal to all federal, state and local government web resources and services.